Home > Weather > Walsrode > Past weeks

Flag for Germany Past Weather in Walsrode, Lower Saxony, Germany — Yesterday and Last 2 Weeks

Now
68 °F

Thunderstorms. Partly sunny.


Feels Like: 68 °F
Forecast: 55 / 67 °F
Wind: 6 mph from West

Location: Fassberg

Current Time: Aug 28, 2016 at 9:07:32 PM

Latest Report: Aug 28, 2016 at 8:20 PM


Visibility: 5 mi

Pressure: 29.89 "Hg

Humidity: 94%

Dew Point: 66 °F

Location of WalsrodeLocation

Past Weather in Walsrode — Graph

°F

Walsrode Temperature Yesterday

Maximum temperature yesterday: 82 °F (at 4:20 PM)
Minimum temperature yesterday: 61 °F (at 5:20 AM)
Average temperature yesterday: 71 °F

High & Low Weather Summary for the Past Weeks

 TemperatureHumidityPressure
High93 °F (Aug 26, 4:20 PM)100% (Aug 14, 6:20 AM)30.33 "Hg (Aug 14, 6:20 AM)
Low39 °F (Aug 17, 6:20 AM)24% (Aug 25, 4:20 PM)29.80 "Hg (Aug 20, 12:20 AM)
Average65 °F71%30.07 "Hg
* Reported Aug 13 7:20 PM — Aug 28 7:50 PM, Walsrode, Weather by CustomWeather, © 2016

Note: Actual official high and low records may vary slightly from our data, if they occured in-between our weather recording intervals... More about our weather records

Advertising

Walsrode Weather History for the Previous 24 Hours

Scroll right to see more
 ConditionsComfort  
Time TempWeatherWind HumidityBarometerVisibility
7:50 PM
Sun, Aug 28
68 °FThunderstorms. Partly sunny.12 mph94%29.89 "Hg5 mi
7:20 PM70 °FThunderstorms. Broken clouds.6 mph88%29.86 "HgN/A
6:20 PM75 °FThundershowers. Partly sunny.9 mph65%29.83 "HgN/A
5:20 PM81 °FPartly sunny.30 mph48%29.80 "HgN/A
4:20 PM93 °FPassing clouds.13 mph26%29.80 "HgN/A
3:20 PM91 °FScattered clouds.15 mph32%29.83 "HgN/A
2:20 PM90 °FPassing clouds.8 mph38%29.83 "HgN/A
1:20 PM88 °FPassing clouds.8 mph40%29.86 "HgN/A
12:20 PM82 °FPassing clouds.6 mph51%29.89 "HgN/A
11:20 AM79 °FScattered clouds.6 mph58%29.89 "HgN/A
10:20 AM73 °FScattered clouds.7 mph65%29.92 "HgN/A
9:20 AM68 °FPartly sunny.3 mph78%29.92 "HgN/A
8:20 AM63 °FPartly sunny.9 mph88%29.92 "HgN/A
7:20 AM64 °FThundershowers. Partly cloudy.8 mph83%29.95 "HgN/A
6:20 AM66 °FPartly cloudy.8 mph78%29.95 "HgN/A
5:20 AM68 °FStrong thunderstorms. Passing clouds.8 mph78%29.95 "HgN/A
4:20 AM64 °FPassing clouds.3 mph88%29.92 "HgN/A
3:20 AM66 °FPassing clouds.5 mph78%29.95 "HgN/A
2:20 AM68 °FPassing clouds.6 mph73%29.95 "HgN/A
1:20 AM66 °FPassing clouds.7 mph78%29.98 "HgN/A
12:20 AM66 °FPassing clouds.7 mph73%30.01 "HgN/A
11:20 PM
Sat, Aug 27
68 °FPassing clouds.8 mph69%30.01 "HgN/A
10:20 PM72 °FPassing clouds.8 mph61%30.04 "HgN/A
9:20 PM73 °FPassing clouds.9 mph57%30.04 "HgN/A
Weather by CustomWeather, © 2016

See weather overviewHow to use our weather pages